Create Custom Reports and Graphics: Custom Report

Belmont 8000'

Squaw Valley

9/1/26 11:15 PM (-07:00)
Updated Every 15 Minutes
Temp 37.8 °F   11.3
RH 76 %   11
Dew Pt 30.9 °F   6.9
Wet Bulb 34.5 °F   8.5
Wind Dir S | 169 °
Wind Spd 8.0 mph   6.5
Wind Gust 27.0 mph   1.4
WindChill 33.0 °F   11.0
Daily Min Temp 37.4 °F   11.6
Daily Max Temp 56.8 °F   10.7
Latest Rain 0.00 In
Daily Rain 0.00 In

Last 24 Hours

OV-Belmont 8000'

Hourly Data | America/Los_Angeles
as of 9/1/26 11:15 PM PDT
Date & Time Temp (°F) RH (%) Dew Pt (°F) Wet Bulb (°F) Wind Dir (°) Wind Spd (mph) Wind Gust (mph) WindChill (°F) Latest Rain (In) Daily Min Temp (°F) Daily Max Temp (°F) Daily Rain (In)
9/1/26 - 2300 38.1 74 30.7 34.6 SE | 137 8.7 32.1 32.6 0.00 37.4 56.8 0.00
9/1/26 - 2200 37.9 77 31.3 34.8 S | 179 7.3 28.3 34.3 0.00 37.9 56.8 0.00
9/1/26 - 2100 39.7 72 31.6 35.9 SE | 141 8.2 33.9 36.3 0.00 39.7 56.8 0.00
9/1/26 - 2000 41.8 62 29.9 36.2 SE | 137 6.5 22.3 39.2 0.00 41.8 56.8 0.00
9/1/26 - 1900 43.8 58 30.1 37.3 SSW | 194 8.3 31.0 41.9 0.00 43.7 56.8 0.00
9/1/26 - 1800 48.5 47 29.2 39.2 S | 174 9.0 26.4 46.1 0.00 45.8 56.8 0.00
9/1/26 - 1700 50.2 44 29.1 40.0 S | 176 10.4 36.5 47.7 0.00 45.8 56.8 0.00
9/1/26 - 1600 52.1 41 29.3 41.0 SSE | 160 14.3 52.7 47.5 0.00 45.8 56.8 0.00
9/1/26 - 1500 50.9 43 29.1 40.3 S | 172 9.3 29.9 50.4 0.00 45.8 56.8 0.00
9/1/26 - 1400 53.8 41 30.7 42.2 S | 190 11.6 27.3 53.8 0.00 45.8 56.8 0.00
9/1/26 - 1300 55.4 35 28.0 42.0 S | 172 15.3 32.2 52.9 0.00 45.8 56.5 0.00
9/1/26 - 1200 52.8 43 30.8 41.8 S | 177 14.7 28.0 47.8 0.00 45.8 54.2 0.00
9/1/26 - 1100 51.7 47 32.1 41.8 SSE | 164 16.2 27.5 45.3 0.00 45.8 52.4 0.00
9/1/26 - 1000 50.4 44 29.2 40.1 SSE | 166 19.3 35.9 43.9 0.00 45.8 51.1 0.00
9/1/26 - 0900 49.7 42 27.3 39.1 SSE | 167 19.6 32.2 42.6 0.00 45.8 50.4 0.00
9/1/26 - 0800 48.3 45 28.2 38.8 SSE | 155 18.4 33.8 41.1 0.00 45.8 49.0 0.00
9/1/26 - 0700 47.1 50 29.4 38.6 SSE | 155 16.9 33.1 40.6 0.00 45.8 49.0 0.00
9/1/26 - 0600 46.6 50 29.2 38.3 SSE | 158 16.6 31.8 39.7 0.00 45.8 49.0 0.00
9/1/26 - 0500 46.4 61 33.6 40.0 SSE | 149 13.8 28.2 40.3 0.00 45.8 49.0 0.00
9/1/26 - 0400 46.4 65 35.3 40.7 SE | 146 17.9 32.2 40.1 0.00 46.3 49.0 0.00
9/1/26 - 0300 47.4 64 35.6 41.3 SE | 145 18.4 32.0 41.2 0.00 47.3 49.0 0.00
9/1/26 - 0200 48.0 66 37.1 42.2 SSE | 153 16.4 29.3 42.2 0.00 47.9 49.0 0.00
9/1/26 - 0100 48.6 66 37.7 42.8 SSE | 164 15.1 26.2 43.1 0.00 48.4 49.0 0.00
9/1/26 - 0000 48.8 63 36.8 42.5 SSE | 161 14.2 26.1 43.7 0.00 48.7 67.6 0.00
8/31/26 - 2300 49.3 64 37.8 43.2 S | 172 13.3 25.1 45.1 0.00 49.1 67.6 0.00
Max 55.4 77 37.8 43.2 - 19.6 52.7 53.8 0.00 49.1 67.6 0.00
Avg 47.7 55 31.6 39.8 - 13.6 31.0 43.2 0.00 - - -
Min 37.9 35 27.3 34.6 - 6.5 22.3 32.6 0.00 37.4 49.0 0.00
Total - - - - - - - - 0.00 - - -

Last 30 Days

OV-Belmont 8000'

Daily Data | America/Los_Angeles
as of 9/1/26 11:15 PM PDT
Date Daily Max Temp (°F) Time of Max Temp Daily Min Temp (°F) Time of Min Temp Daily Rain (In) Season Precip (In) Wind Spd (mph) Daily Max Wind (mph) Time of Max Wind Max Wind Dir (°) Daily Max RH (%) Daily Min RH (%) Wet Bulb (°F) WetB Hrs <28F (hrs) MinBV Day (V)
8/31/26 67.6 1342 48.7 2359 0.00 102.80 10.4 29.4 2102 SSE | 168 66 25 44.3 0.0 13.0
8/30/26 68.6 1530 49.0 0351 0.00 102.80 8.6 24.1 0858 SSW | 204 54 21 43.4 0.0 13.1
8/29/26 63.4 1511 48.3 0641 0.00 102.80 9.9 29.4 1106 SE | 142 92 32 46.2 0.0 12.7
8/28/26 56.2 0149 48.4 1047 0.11 102.80 8.6 18.6 2204 S | 174 98 43 47.9 0.0 13.2
8/27/26 71.3 1303 55.4 2357 0.00 102.70 9.4 27.0 0208 SW | 231 55 23 46.5 0.0 13.0
8/26/26 72.4 1510 58.2 0359 0.00 102.70 10.5 34.9 1358 SW | 226 64 28 50.4 0.0 13.0
8/25/26 71.2 1651 55.6 0348 0.00 102.70 9.2 31.0 0927 SSW | 203 51 33 49.0 0.0 13.0
8/24/26 73.5 1351 57.4 2302 0.00 102.70 9.4 30.3 1405 WSW | 245 53 34 49.9 0.0 13.0
8/23/26 72.6 1337 57.4 0236 0.00 102.70 10.6 27.1 1409 NNW | 329 57 29 49.7 0.0 12.6
8/22/26 70.8 1242 57.6 0704 0.00 102.70 8.5 30.2 1426 SSW | 202 51 32 48.6 0.0 12.6
8/21/26 74.4 1241 59.4 2333 0.00 102.70 11.8 26.1 1956 WSW | 240 49 26 49.3 0.0 13.0
8/20/26 75.3 1424 60.1 2030 0.00 102.70 11.3 28.3 1457 W | 280 41 20 47.9 0.0 13.0
8/19/26 77.0 1346 57.9 0626 0.00 102.70 6.7 22.9 2247 SSW | 213 45 21 49.6 0.0 13.0
8/18/26 74.9 1709 57.0 0130 0.00 102.70 6.7 20.0 1320 SW | 231 48 21 48.4 0.0 13.0
8/17/26 70.9 1147 55.6 0557 0.00 102.70 9.4 33.8 1533 SSW | 196 54 32 48.4 0.0 13.0
8/16/26 72.0 1442 53.7 0051 0.00 102.70 8.9 23.5 0442 SSE | 168 52 25 46.2 0.0 13.0
8/15/26 65.5 1623 50.6 0703 0.00 102.70 12.3 29.8 0216 NNE | 20 71 31 45.3 0.0 13.1
8/14/26 64.0 1525 49.5 0341 0.00 102.70 11.5 27.8 0516 SSW | 207 79 46 47.6 0.0 13.1
8/13/26 63.0 1254 52.0 2356 0.00 102.70 12.0 33.0 1508 WSW | 242 76 55 49.9 0.0 13.1
8/12/26 69.3 1640 57.4 2359 0.00 102.70 11.3 30.6 1231 SW | 227 64 19 48.9 0.0 13.0
8/11/26 77.2 1513 61.3 2211 0.00 102.70 11.9 25.0 0303 SSE | 151 35 16 47.7 0.0 13.0
8/10/26 77.7 1154 63.4 2106 0.00 102.70 10.4 26.5 1400 SW | 234 42 19 49.9 0.0 13.0
8/9/26 83.4 1450 65.7 2111 0.00 102.70 5.9 19.9 1522 NW | 309 36 16 50.6 0.0 13.0
8/8/26 85.3 1608 66.8 2357 0.00 102.70 5.3 17.7 1845 WNW | 289 40 21 53.2 0.0 13.0
8/7/26 87.8 1633 66.5 0124 0.00 102.70 5.9 19.9 1447 NNW | 348 39 17 52.6 0.0 13.0
8/6/26 80.2 1523 64.3 0359 0.00 102.70 9.7 22.6 1424 WSW | 251 33 15 50.2 0.0 13.0
8/5/26 80.7 1653 58.9 0609 0.00 102.70 8.0 19.1 1515 SW | 225 43 11 47.9 0.0 13.0
8/4/26 80.5 1446 58.7 0448 0.00 102.70 5.0 18.3 1805 W | 259 39 11 48.4 0.0 13.0
8/3/26 81.3 1608 55.3 0610 0.00 102.70 3.7 17.3 1937 WNW | 293 41 13 47.7 0.0 13.0
8/2/26 78.2 1438 57.2 2359 0.00 102.70 6.7 19.5 1502 WSW | 253 42 13 47.0 0.0 13.0
Max 87.8 - 66.8 - 0.11 102.80 12.3 34.9 - - 98 55 53.2 0.0 13.2
Avg - - - - - - 9.0 - - - - - 48.4 - -
Min 56.2 - 48.3 - 0.00 102.70 3.7 17.3 - - 33 11 43.4 0.0 12.6
Calm: 0.0%
Calm: 0.0%